Flag for Vatican City State Weather past 2 weeks in Vatican City, Vatican City State

48 °F

Passing clouds.

Feels Like: 48 °F
Forecast: 41 / 51 °F
Wind: 2 mph from Northeast

Location: Rome / Ciampino

Current Time: Nov 25, 2015 at 9:39:26 PM

Latest Report: Nov 25, 2015 at 8:50 PM

Visibility: 6 mi

Pressure: 29.59 "Hg

Humidity: 71%

Dew point: 39 °F

Location of Vatican CityLocation

Historic Weather in Vatican City — Graph


Vatican City temperature yesterday

Maximum temperature yesterday: 55 °F (at 2:20 PM)
Minimum temperature yesterday: 43 °F (at 7:50 AM)
Average temperature yesterday: 49 °F

Past Weeks' High & Low Weather Summary

High64 °F (Nov 11, 12:50 PM)100% (Nov 11, 3:20 AM)30.39 "Hg (Nov 11, 3:20 AM)
Low37 °F (Nov 25, 5:20 AM)52% (Nov 18, 1:20 PM)29.30 "Hg (Nov 21, 2:20 PM)
Average55 °F79%30.07 "Hg
* Reported Nov 10 8:20 PM — Nov 25 8:20 PM, Vatican City, Weather by CustomWeather, © 2015

Note: Actual official high and low records may vary slightly from our data, if they occured in-between our weather recording intervals... More about our weather records


Vatican City weather history for previous 24 hours

Time TempWeatherWind HumidityBarometerVisibility
8:20 PM
Wed, Nov 25
48 °FPassing clouds.2 mph71%29.62 "HgN/A
7:50 PM48 °FPassing clouds.2 mph71%29.62 "Hg6 mi
7:20 PM46 °FPassing clouds.5 mph76%29.62 "HgN/A
6:50 PM46 °FPassing clouds.3 mph82%29.62 "HgN/A
6:20 PM45 °FPassing clouds.3 mph81%29.62 "HgN/A
5:50 PM48 °FPassing clouds.2 mph71%29.65 "HgN/A
5:20 PM50 °FPassing clouds.1 mph67%29.65 "HgN/A
4:50 PM50 °FPassing clouds.1 mph67%29.68 "HgN/A
4:20 PM52 °FScattered clouds.3 mph58%29.68 "HgN/A
3:50 PM52 °FScattered clouds.3 mph58%29.68 "HgN/A
3:20 PM54 °FScattered clouds.5 mph54%29.71 "HgN/A
2:50 PM54 °FScattered clouds.6 mph54%29.71 "HgN/A
2:20 PM54 °FSunny.5 mph54%29.71 "Hg10 mi
1:50 PM54 °FSunny.6 mph63%29.74 "Hg10 mi
1:20 PM54 °FPassing clouds.3 mph63%29.74 "HgN/A
12:50 PM52 °FSunny.2 mph62%29.77 "Hg10 mi
12:20 PM50 °FPassing clouds.5 mph67%29.77 "HgN/A
11:50 AM48 °FPassing clouds.3 mph71%29.80 "HgN/A
11:20 AM46 °FSunny.7 mph76%29.80 "Hg10 mi
10:50 AM45 °FSunny.7 mph76%29.80 "Hg10 mi
9:50 AM43 °FSunny.8 mph81%29.83 "Hg10 mi
9:20 AM41 °FSunny.8 mph87%29.83 "Hg10 mi
8:50 AM41 °FSunny.9 mph87%29.83 "Hg10 mi
7:50 AM39 °FPassing clouds.7 mph87%29.83 "HgN/A
7:20 AM37 °FPassing clouds.7 mph93%29.83 "HgN/A
6:50 AM37 °FClear.7 mph93%29.83 "Hg10 mi
6:20 AM39 °FPassing clouds.9 mph87%29.83 "HgN/A
5:50 AM39 °FPassing clouds.9 mph87%29.83 "HgN/A
5:20 AM37 °FPassing clouds.9 mph93%29.86 "HgN/A
4:50 AM39 °FPassing clouds.8 mph87%29.86 "HgN/A
3:50 AM39 °FPassing clouds.9 mph93%29.89 "HgN/A
2:20 AM41 °FPassing clouds.8 mph87%29.92 "HgN/A
1:20 AM41 °FPassing clouds.8 mph93%29.95 "HgN/A
12:50 AM41 °FPassing clouds.6 mph93%29.95 "HgN/A
12:20 AM43 °FPassing clouds.7 mph87%29.95 "HgN/A
11:50 PM
Tue, Nov 24
43 °FPassing clouds.9 mph87%29.98 "HgN/A
10:50 PM45 °FPassing clouds.7 mph87%29.98 "HgN/A
10:20 PM45 °FPassing clouds.7 mph87%29.98 "HgN/A
9:50 PM45 °FPassing clouds.8 mph87%29.98 "HgN/A
9:20 PM45 °FPassing clouds.6 mph87%30.01 "HgN/A
Weather by CustomWeather, © 2015

See weather overviewHow to use our weather pages